Flight Track Log - Related Links

Times and Time Zones

All times are in EDT time to prevent confusion due to time zone crossing. See the N9246F flight status page for this flight to view local times or setup timezone preferences in your user account.

Time Position Orientation Groundspeed Altitude Reporting Facility
EDT Latitude Longitude Course Direction KTS MPH feet Rate Location/Type
Tue 10:45:37 AM 28.1667 -80.6000 336° Northwest 111 128 5,000  Level Orlando TRACON
Tue 10:46:43 AM 28.2000 -80.6167 336° Northwest 111 128 5,000  Level Orlando TRACON
Tue 10:47:37 AM 28.2167 -80.6333 319° Northwest 110 127 5,000  Level Orlando TRACON
Tue 10:48:43 AM 28.2500 -80.6500 336° Northwest 110 127 5,000 48 Level Orlando TRACON
Tue 10:49:43 AM 28.2667 -80.6667 319° Northwest 111 128 5,100 50 Climbing Orlando TRACON
Tue 10:50:43 AM 28.3000 -80.7000 319° Northwest 110 127 5,100  Level Orlando TRACON
Tue 10:51:50 AM 28.3167 -80.7167 319° Northwest 108 124 5,100  Level Orlando TRACON
Tue 10:52:44 AM 28.3500 -80.7333 336° Northwest 106 122 5,100 -53 Level Orlando TRACON
Tue 10:53:44 AM 28.3667 -80.7500 319° Northwest 110 127 5,000 -50 Descending Orlando TRACON
Tue 10:54:44 AM 28.4000 -80.7833 319° Northwest 115 132 5,000 52 Level Orlando TRACON
Tue 10:55:39 AM 28.4167 -80.8000 319° Northwest 112 129 5,100  Climbing Orlando TRACON
Tue 10:56:39 AM 28.4500 -80.8167 336° Northwest 117 135 5,000 -50 Descending Orlando TRACON
Tue 10:57:39 AM 28.4833 -80.8333 336° Northwest 111 128 5,000  Level Orlando TRACON
Tue 10:58:39 AM 28.5000 -80.8500 319° Northwest 111 128 5,000  Level Orlando TRACON
Tue 10:59:39 AM 28.5333 -80.8667 336° Northwest 108 124 5,000 -99 Level Orlando TRACON
Tue 11:00:40 AM 28.5500 -80.8833 319° Northwest 108 124 4,800 -347 Descending Orlando TRACON
Tue 11:01:40 AM 28.5833 -80.9000 336° Northwest 108 124 4,300 -400 Descending Orlando TRACON
Tue 11:02:40 AM 28.6000 -80.9167 319° Northwest 107 123 4,000 -100 Descending Orlando TRACON
Tue 11:03:40 AM 28.6333 -80.9500 319° Northwest 110 127 4,100 48 Climbing Orlando TRACON
Tue 11:04:46 AM 28.6500 -80.9667 319° Northwest 114 131 4,100 -200 Level Orlando TRACON
Tue 11:05:40 AM 28.6833 -80.9833 336° Northwest 110 127 3,700 -470 Descending Orlando TRACON
Tue 11:06:41 AM 28.7000 -81.0167 300° West 111 128 3,200 -347 Descending Orlando TRACON
Tue 11:07:41 AM 28.7167 -81.0500 300° West 112 129 3,000 -100 Descending Orlando TRACON
Tue 11:08:41 AM 28.7167 -81.0833 270° West 118 136 3,000  Level Orlando TRACON
Tue 11:09:41 AM 28.7333 -81.1167 300° West 119 137 3,000  Level Orlando TRACON
Tue 11:10:41 AM 28.7333 -81.1500 270° West 124 143 3,000 -50 Level Orlando TRACON
Tue 11:11:41 AM 28.7167 -81.1833 240° Southwest 115 132 2,900 -347 Descending Orlando TRACON
Tue 11:12:42 AM 28.7167 -81.2333 270° West 115 132 2,300 -450 Descending Orlando TRACON
Tue 11:13:41 AM 28.7167 -81.2667 270° West 115 132 2,000 -150 Descending Orlando TRACON
Tue 11:14:42 AM 28.7167 -81.3000 270° West 115 132 2,000 50 Level Orlando TRACON
Tue 11:15:42 AM 28.7167 -81.3333 270° West 116 133 2,100 50 Climbing Orlando TRACON
Tue 11:16:42 AM 28.7000 -81.3667 240° Southwest 118 136 2,100  Level Orlando TRACON
Tue 11:17:42 AM 28.7000 -81.4000 270° West 117 135 2,100 -48 Level Orlando TRACON
Tue 11:18:48 AM 28.7167 -81.4500 291° West 109 125 2,000 -50 Descending Orlando TRACON
Tue 11:19:43 AM 28.7500 -81.4500 360° North 111 128 2,000 -52 Level Orlando TRACON
Tue 11:20:43 AM 28.7667 -81.4500 360° North 108 124 1,900 -95 Descending Orlando TRACON
Tue 11:21:49 AM 28.7833 -81.4167 60° Northeast 100 115 1,800  Descending Orlando TRACON
Tue 11:22:44 AM 28.7833 -81.4000 90° East 97 112 1,900 -52 Climbing Orlando TRACON
Tue 11:23:44 AM 28.7833 -81.3667 90° East 89 102 1,700 -143 Descending Orlando TRACON
Tue 11:24:50 AM 28.7833 -81.3333 90° East 79 91 1,600 -250 Descending Orlando TRACON
Tue 11:25:44 AM 28.7833 -81.3167 90° East 70 81 1,200 -421 Descending Orlando TRACON
Tue 11:26:44 AM 28.7833 -81.3000 90° East 74 85 800 121 Descending Orlando TRACON
Tue 11:32:21 AM 28.8333 -81.2167 221° Southwest 84 97 2,000 256 Climbing Orlando TRACON
Tue 11:33:22 AM 28.8500 -81.2500 300° West 98 113 2,500 496 Climbing Orlando TRACON
Tue 11:34:22 AM 28.8500 -81.2833 270° West 94 108 3,000 250 Climbing Orlando TRACON
Tue 11:35:00 AM 28.7667 -81.2333 319° Northwest  Level FlightAware Approximate
Tue 11:35:22 AM 28.8667 -81.3167 300° West 121 139 3,000  Level Orlando TRACON
Tue 11:36:00 AM 28.7770 -81.2349 221° Southwest  Level Estimated
Tue 11:36:22 AM 28.8667 -81.3500 270° West 120 138 3,000  Level Orlando TRACON
Tue 11:37:16 AM 28.8667 -81.3833 270° West 124 143 2,900 -263 Descending Orlando TRACON
Tue 11:38:16 AM 28.8667 -81.4167 270° West 119 137 2,500 -496 Descending Orlando TRACON
Tue 11:39:17 AM 28.8500 -81.4333 221° Southwest 115 132 1,900 -397 Descending Orlando TRACON
Tue 11:40:17 AM 28.8167 -81.4333 180° South 105 121 1,700 -100 Descending Orlando TRACON
Tue 11:41:17 AM 28.7833 -81.4333 180° South 109 125 1,700  Level Orlando TRACON
Tue 11:42:29 AM 28.7833 -81.4000 90° East 104 120 1,700  Level Orlando TRACON
Tue 11:43:11 AM 28.7833 -81.3833 90° East 101 116 1,700  Level Orlando TRACON
Tue 11:44:23 AM 28.7833 -81.3500 90° East 90 104 1,700 -180 Level Orlando TRACON
Tue 11:45:24 AM 28.7833 -81.3167 90° East 84 97 1,300 -417 Descending Orlando TRACON
Tue 11:46:18 AM 28.7833 -81.3000 90° East 76 87 900 -152 Descending Orlando TRACON
Tue 11:48:42 AM 28.7833 -81.2333 90° East 73 84 800 166 Descending Orlando TRACON
Tue 11:49:55 AM 28.7833 -81.2000 90° East 86 99 1,500 586 Climbing Orlando TRACON
Tue 11:50:55 AM 28.8000 -81.1833 41° Northeast 74 85 2,100 600 Climbing Orlando TRACON

Login

Don't have an account? Register now (free) for customized features, flight alerts, and more!